GW5520 Weather Reports


time (UTC)temp
F
wind
direction
speed
knots
gust
knots
rain 1hr
in
rain 24hr
in
rain mn
in
humidity
%
barometer
mb
20260505054613 65 216 4.3 5.2 0.00 0.00 0.00 68
20260505054112 65 185 2.6 6.1 0.00 0.00 0.00 67
20260505053608 65 203 3.5 5.2 0.00 0.00 0.00 67
20260505053105 66 218 4.3 5.2 0.00 0.00 0.00 66
20260505052602 66 194 7.8 9.6 0.00 0.00 0.00 66
20260505052059 66 196 4.3 5.2 0.00 0.00 0.00 66
20260505051556 66 213 4.3 5.2 0.00 0.00 0.00 66
20260505051054 66 198 0.9 7.8 0.00 0.00 0.00 65
20260505050552 66 203 7.0 9.6 0.00 0.00 0.00 65
20260505041520 68 207 5.2 9.6 0.00 0.00 0.00 62
20260505041017 68 194 4.3 12.2 0.00 0.00 0.00 62
20260505040514 68 199 6.1 9.6 0.00 0.00 0.00 62
20260505040012 68 175 7.0 11.3 0.00 0.00 0.00 62
20260505035507 68 180 5.2 9.6 0.00 0.00 0.00 62
20260505035004 68 181 6.1 7.8 0.00 0.00 0.00 61
20260505034500 68 228 4.3 7.8 0.00 0.00 0.00 61
20260505033958 68 198 6.1 10.4 0.00 0.00 0.00 60
20260505033454 68 188 7.0 13.0 0.00 0.00 0.00 60
20260505032953 68 199 5.2 7.8 0.00 0.00 0.00 61
20260505032450 69 210 5.2 8.7 0.00 0.00 0.00 60
20260505031946 69 189 6.1 11.3 0.00 0.00 0.00 59
20260505031443 69 182 5.2 10.4 0.00 0.00 0.00 59
20260505030940 69 228 5.2 12.2 0.00 0.00 0.00 58
20260505030436 69 196 4.3 11.3 0.00 0.00 0.00 59
20260505025931 69 186 4.3 13.0 0.00 0.00 0.00 58
20260505025429 69 192 5.2 9.6 0.00 0.00 0.00 58
20260505024928 69 210 4.3 7.8 0.00 0.00 0.00 58
20260505024425 70 198 5.2 9.6 0.00 0.00 0.00 58
20260505023922 70 193 4.3 13.9 0.00 0.00 0.00 58
20260505023419 70 182 5.2 11.3 0.00 0.00 0.00 58
20260505022916 70 200 5.2 6.1 0.00 0.00 0.00 58
20260505022413 70 197 4.3 7.0 0.00 0.00 0.00 57
20260505021910 70 196 5.2 8.7 0.00 0.00 0.00 56
20260505021407 71 201 4.3 7.0 0.00 0.00 0.00 56
20260505020903 71 180 5.2 9.6 0.00 0.00 0.00 55
20260505020358 71 200 7.0 8.7 0.00 0.00 0.00 55
20260505015855 71 196 5.2 7.8 0.00 0.00 0.00 55
20260505015352 71 215 5.2 11.3 0.00 0.00 0.00 55
20260505014850 71 201 5.2 12.2 0.00 0.00 0.00 55
20260505014346 71 184 3.5 6.1 0.00 0.00 0.00 56
20260505013843 72 175 5.2 8.7 0.00 0.00 0.00 55
20260505013340 72 193 4.3 10.4 0.00 0.00 0.00 55
20260505012839 72 208 3.5 7.8 0.00 0.00 0.00 55
20260505012336 72 208 4.3 5.2 0.00 0.00 0.00 55
20260505011832 73 198 5.2 7.8 0.00 0.00 0.00 54
20260505011329 73 208 3.5 7.0 0.00 0.00 0.00 54
20260505010825 73 181 1.7 5.2 0.00 0.00 0.00 53
20260505010321 73 190 6.1 7.8 0.00 0.00 0.00 53
20260505005817 73 211 4.3 7.0 0.00 0.00 0.00 52
20260505005314 74 203 6.1 7.0 0.00 0.00 0.00 52
20260505004812 74 213 1.7 6.1 0.00 0.00 0.00 52
20260505004308 74 189 2.6 5.2 0.00 0.00 0.00 51
20260505003806 74 203 3.5 5.2 0.00 0.00 0.00 49
20260505003303 75 191 2.6 6.1 0.00 0.00 0.00 47
20260505002759 75 214 2.6 7.8 0.00 0.00 0.00 47
20260505002256 75 200 5.2 7.0 0.00 0.00 0.00 46
20260505001754 76 212 4.3 9.6 0.00 0.00 0.00 46
20260505001251 76 210 7.8 7.8 0.00 0.00 0.00 46
20260505000748 76 206 3.5 7.0 0.00 0.00 0.00 45
20260505000246 76 190 6.1 7.8 0.00 0.00 0.00 45
20260504235742 77 187 4.3 7.0 0.00 0.00 0.00 45
20260504235238 77 228 3.5 13.9 0.00 0.00 0.00 44
20260504234736 77 191 5.2 9.6 0.00 0.00 0.00 44
20260504234233 78 219 3.5 10.4 0.00 0.00 0.00 43
20260504233729 78 208 7.0 11.3 0.00 0.00 0.00 43
20260504233225 78 203 5.2 7.8 0.00 0.00 0.00 43
20260504232722 78 214 10.4 12.2 0.00 0.00 0.00 42
20260504232219 79 208 4.3 7.8 0.00 0.00 0.00 43
20260504231716 79 194 4.3 9.6 0.00 0.00 0.00 42
20260504231212 80 208 3.5 7.8 0.00 0.00 0.00 42
20260504230708 80 193 4.3 8.7 0.00 0.00 0.00 42
20260504230208 80 211 7.0 11.3 0.00 0.00 0.00 41
20260504225706 80 219 5.2 13.0 0.00 0.00 0.00 40
20260504225201 80 204 7.8 12.2 0.00 0.00 0.00 40
20260504224659 80 126 5.2 11.3 0.00 0.00 0.00 40
20260504224156 80 209 11.3 11.3 0.00 0.00 0.00 38
20260504223653 80 184 1.7 10.4 0.00 0.00 0.00 40
20260504223148 80 202 7.8 13.9 0.00 0.00 0.00 39
20260504222645 80 182 7.8 13.9 0.00 0.00 0.00 39
20260504222142 80 230 5.2 13.9 0.00 0.00 0.00 41
20260504221639 80 215 7.8 15.6 0.00 0.00 0.00 39
20260504221136 81 219 7.0 14.8 0.00 0.00 0.00 40
20260504220632 81 184 9.6 10.4 0.00 0.00 0.00 39
20260504220130 81 215 7.0 14.8 0.00 0.00 0.00 41
20260504215626 81 202 5.2 13.9 0.00 0.00 0.00 40
20260504215124 80 185 11.3 13.9 0.00 0.00 0.00 40
20260504214620 81 222 7.0 13.0 0.00 0.00 0.00 39
20260504214116 81 212 9.6 16.5 0.00 0.00 0.00 39
20260504213613 81 205 7.0 10.4 0.00 0.00 0.00 40
20260504213110 81 201 7.0 14.8 0.00 0.00 0.00 40
20260504212606 81 236 5.2 13.0 0.00 0.00 0.00 39
20260504212103 81 201 2.6 13.0 0.00 0.00 0.00 38
20260504211600 82 208 4.3 10.4 0.00 0.00 0.00 39
20260504211056 81 202 8.7 14.8 0.00 0.00 0.00 38
20260504210554 81 190 6.1 16.5 0.00 0.00 0.00 41
20260504210050 80 228 4.3 14.8 0.00 0.00 0.00 40
20260504205548 82 245 4.3 13.9 0.00 0.00 0.00 40
20260504205046 80 181 4.3 18.2 0.00 0.00 0.00 40
20260504204544 81 200 12.2 18.2 0.00 0.00 0.00 37
20260504204043 82 203 6.1 15.6 0.00 0.00 0.00 38
20260504203540 81 194 8.7 15.6 0.00 0.00 0.00 38
20260504203038 81 194 7.8 13.0 0.00 0.00 0.00 42
20260504202533 80 193 6.1 12.2 0.00 0.00 0.00 42
20260504202030 80 344 4.3 12.2 0.00 0.00 0.00 40
20260504201527 81 180 12.2 13.9 0.00 0.00 0.00 40
20260504201025 81 250 1.7 12.2 0.00 0.00 0.00 40
20260504200521 81 244 7.8 18.2 0.00 0.00 0.00 39
20260504200018 81 207 11.3 16.5 0.00 0.00 0.00 39
20260504195514 81 189 7.0 13.9 0.00 0.00 0.00 41
20260504195011 81 209 8.7 13.9 0.00 0.00 0.00 40
20260504194507 81 189 6.1 10.4 0.00 0.00 0.00 41
20260504194002 81 204 6.1 11.3 0.00 0.00 0.00 41
20260504193500 81 211 9.6 17.4 0.00 0.00 0.00 41
20260504192959 81 192 9.6 12.2 0.00 0.00 0.00 40
20260504192456 81 204 10.4 16.5 0.00 0.00 0.00 40
20260504191954 81 202 7.8 13.9 0.00 0.00 0.00 39
20260504191452 81 227 5.2 7.8 0.00 0.00 0.00 43
20260504190947 79 194 7.0 13.9 0.00 0.00 0.00 43
20260504190443 79 203 5.2 13.9 0.00 0.00 0.00 43
20260504185940 78 226 11.3 17.4 0.00 0.00 0.00 43
20260504185437 79 181 11.3 13.9 0.00 0.00 0.00 41
20260504184933 80 199 3.5 13.0 0.00 0.00 0.00 43
20260504184429 80 214 7.0 11.3 0.00 0.00 0.00 41
20260504183925 80 193 4.3 8.7 0.00 0.00 0.00 44
20260504183422 80 190 1.7 13.9 0.00 0.00 0.00 41
20260504182920 79 171 13.9 14.8 0.00 0.00 0.00 42
20260504182417 79 195 7.8 15.6 0.00 0.00 0.00 43
20260504181914 79 211 8.7 18.2 0.00 0.00 0.00 41
20260504181411 79 205 13.9 14.8 0.00 0.00 0.00 41
20260504180910 79 227 2.6 12.2 0.00 0.00 0.00 44
20260504180408 79 207 7.0 11.3 0.00 0.00 0.00 43
20260504175906 79 190 5.2 10.4 0.00 0.00 0.00 44
20260504175402 78 193 9.6 13.0 0.00 0.00 0.00 44
20260504174900 79 194 8.7 13.9 0.00 0.00 0.00 45
20260504174358 78 199 4.3 11.3 0.00 0.00 0.00 43
20260504173855 78 213 7.8 14.8 0.00 0.00 0.00 43
20260504173351 78 198 8.7 16.5 0.00 0.00 0.00 44
20260504172848 78 228 5.2 10.4 0.00 0.00 0.00 44
20260504172345 77 265 4.3 11.3 0.00 0.00 0.00 45
20260504171840 77 257 5.2 12.2 0.00 0.00 0.00 44
20260504171338 77 193 10.4 14.8 0.00 0.00 0.00 43
20260504170835 77 203 8.7 11.3 0.00 0.00 0.00 46
20260504170332 77 211 9.6 13.9 0.00 0.00 0.00 44
20260504160250 75 196 9.6 13.0 0.00 0.00 0.00 48
20260504150716 71 199 7.0 7.8 0.00 0.00 0.00 52
20260504150213 71 174 3.5 11.3 0.00 0.00 0.00 51
20260504141142 67 236 5.2 13.0 0.00 0.00 0.00 57
20260504140638 67 209 7.8 12.2 0.00 0.00 0.00 54
20260504140134 66 212 13.9 13.9 0.00 0.00 0.00 56
20260504130602 64 204 7.0 13.0 0.00 0.00 0.00 59
20260504110450 62 192 4.3 8.7 0.00 0.00 0.00 59
20260504100412 62 203 4.3 7.0 0.00 0.00 0.00 60
20260504081805 64 199 7.8 12.2 0.00 0.00 0.00 56
20260504081302 64 198 6.1 9.6 0.00 0.00 0.00 56
20260504080758 64 193 4.3 8.7 0.00 0.00 0.00 56
20260504080255 64 202 3.5 10.4 0.00 0.00 0.00 56
20260504070222 66 202 4.3 10.4 0.00 0.00 0.00 53
20260504060143 66 211 4.3 7.8 0.00 0.00 0.00 52